Home > Weather > Lomé > Past weeks

Flag for Togo Weather for the Past 2 Weeks in Lomé, Togo

Now
90 °F

Clear.


Feels Like: 105 °F
Forecast: N/A
Wind: 14 mph from South

Location: Lome Airport

Current Time: Feb 12, 2016 at 3:16:04 PM

Latest Report: Feb 12, 2016 at 2:30 PM


Visibility: 4 mi

Pressure: 29.80 "Hg

Humidity: 71%

Dew point: 79 °F

Location of LoméLocation

Historic Weather in Lomé — Graph

°F

Lomé Temperature Yesterday

Maximum temperature yesterday: 91 °F (at 11:00 AM)
Minimum temperature yesterday: 75 °F (at 5:00 AM)
Average temperature yesterday: 83 °F

High & Low Weather Summary for the Past Weeks

 TemperatureHumidityPressure
High99 °F (Feb 10, 1:00 PM)100% (Feb 1, 5:00 AM)30.01 "Hg (Feb 1, 5:00 AM)
Low72 °F (Jan 31, 5:00 AM)14% (Feb 10, 11:00 AM)29.77 "Hg (Feb 1, 4:00 PM)
Average83 °F74%29.89 "Hg
* Reported Jan 28 2:00 PM — Feb 12 2:00 PM, Lomé, Weather by CustomWeather, © 2016

Note: Actual official high and low records may vary slightly from our data, if they occured in-between our weather recording intervals... More about our weather records

Advertising

Lomé Weather History for the Previous 24 Hours

 ConditionsComfort  
Time TempWeatherWind HumidityBarometerVisibility
2:00 PM
Fri, Feb 12
90 °FClear.14 mph67%29.80 "Hg4 mi
1:30 PM91 °FClear.13 mph63%29.83 "Hg4 mi
1:00 PM91 °FClear.12 mph59%29.83 "Hg4 mi
12:30 PM91 °FClear.8 mph59%29.86 "Hg4 mi
12:00 PM91 °FClear.8 mph59%29.86 "Hg4 mi
11:30 AM93 °FClear.2 mph53%29.89 "Hg4 mi
11:00 AM90 °FClear.3 mph55%29.89 "Hg4 mi
10:30 AM90 °FClear.5 mph55%29.92 "Hg4 mi
10:00 AM86 °FClear.3 mph66%29.92 "Hg4 mi
9:30 AM84 °FClear.6 mph70%29.92 "Hg4 mi
9:00 AM82 °FClear.5 mph79%29.92 "Hg4 mi
8:30 AM81 °FClear.7 mph89%29.92 "Hg4 mi
8:00 AM79 °FFog.2 mph94%29.92 "Hg3 mi
7:30 AM79 °FFog.1 mph100%29.89 "Hg3 mi
7:00 AM79 °FFog.3 mph100%29.89 "Hg3 mi
6:30 AM79 °FClear.3 mph100%29.86 "Hg4 mi
6:00 AM79 °FPassing clouds.5 mph100%29.86 "Hg4 mi
5:30 AM79 °FPassing clouds.3 mph100%29.86 "Hg4 mi
4:30 AM79 °FPassing clouds.2 mph100%29.86 "Hg4 mi
4:00 AM79 °FPassing clouds.2 mph100%29.83 "Hg4 mi
3:30 AM79 °FPassing clouds.3 mph100%29.83 "Hg4 mi
3:00 AM79 °FPassing clouds.3 mph100%29.83 "Hg4 mi
2:30 AM81 °FPassing clouds.5 mph94%29.86 "Hg4 mi
2:00 AM81 °FPassing clouds.5 mph94%29.86 "Hg4 mi
1:30 AM81 °FPassing clouds.3 mph94%29.86 "Hg4 mi
1:00 AM81 °FPassing clouds.1 mph94%29.86 "Hg4 mi
11:00 PM
Thu, Feb 11
82 °FPassing clouds.10 mph89%29.89 "Hg4 mi
10:00 PM82 °FClear.9 mph89%29.89 "Hg4 mi
9:30 PM82 °FClear.9 mph89%29.89 "Hg4 mi
9:00 PM82 °FClear.10 mph89%29.86 "Hg4 mi
8:30 PM82 °FClear.10 mph89%29.86 "Hg4 mi
8:00 PM82 °FClear.13 mph89%29.86 "Hg4 mi
7:30 PM82 °FClear.13 mph89%29.83 "Hg4 mi
7:00 PM82 °FHaze.13 mph89%29.83 "Hg3 mi
6:30 PM82 °FHaze.13 mph84%29.83 "Hg3 mi
6:00 PM84 °FHaze.14 mph84%29.80 "Hg3 mi
5:30 PM84 °FHaze.14 mph79%29.80 "Hg3 mi
5:00 PM86 °FHaze.15 mph75%29.80 "Hg3 mi
4:30 PM86 °FHaze.15 mph66%29.80 "Hg3 mi
4:00 PM90 °FHaze.13 mph55%29.77 "Hg3 mi
3:00 PM91 °FHaze.13 mph44%29.77 "Hg3 mi
Weather by CustomWeather, © 2016

See weather overviewHow to use our weather pages